User: anonymous   Login
Location: Bittelbronn
(48.4454°N, 8.5870°E)
Time: 17:16:27
(UTC+00:00)
Language:

Meteor 1-21 - Orbit

View from above orbital plane
View from above orbital plane
View from above satellite
View from above satellite

Ground track
Ground track

The orbit data is extracted from the following two-line orbital elements,

1  7714U 75023A   24207.08608897  .00000175  00000-0  94748-4 0  9996
2  7714  81.2070 184.7687 0030227 143.6508 216.6723 14.08287363850362
Epoch (UTC): 25 July 2024 02:03:58
Eccentricity: 0.0030227
inclination: 81.2070°
perigee height: 843 km
apogee height: 887 km
right ascension of ascending node: 184.7687°
argument of perigee: 143.6508°
revolutions per day: 14.08287363
mean anomaly at epoch: 216.6723°
orbit number at epoch: 85036

The dashed part of the orbit path shows where the satellite is in the earth's shadow,  

DLR